Regional Weather Roundup
Issued by NWS

Home | Current Version | Previous Version | Text Only | Print | Product List | Glossary On
Versions: 1 2 3 4 5 6 7 8 9 10 11 12 13 14 15 16 17 18 19 20 21 22 23 24 25 26 27 28 29 30 31 32 33 34 35 36 37 38 39 40 41 42 43 44 45 46 47 48 49 50
000
ASUS42 KKEY 071310
RWRKEY

FLORIDA REGIONAL WEATHER ROUNDUP FOR THE FLORIDA KEYS
NATIONAL WEATHER SERVICE KEY WEST FLORIDA
800 AM EST SUN FEB 07 2016

...SOUTH FLORIDA AND THE KEYS...

CITY           SKY/WX    TMP DP  RH WIND       PRES   REMARKS
FORT MYERS     LGT RAIN  51  46  83 N16       30.06R
SW REGIONAL AP LGT RAIN  51  45  79 NW13G20   30.06R
NAPLES         CLOUDY    54  47  77 NW8G18    30.06R
MIAMI          MOSUNNY   53  45  74 NW13G22   30.03R
WEST KENDALL   PTSUNNY   52  46  80 NW18G31   30.03R
HOMESTEAD      MOSUNNY   54  48  80 NW13      30.02R
MARATHON       LGT RAIN  59  54  83 N17G24    30.05R
BOCA CHICA NAS LGT RAIN  58  54  86 N30G38    30.06R
KEY WEST INTL  LGT RAIN  58  57  97 N18G33    30.06R

...INTERNATIONAL WEATHER...

CITY           SKY/WX    TMP DP  RH WIND       PRES   REMARKS
NASSAU BAHAMAS LGT RAIN  66  59  77 MISG      29.96R
CANCUN MEXICO  MOCLDY    61  59  94 W3        30.14R
COZUMEL MEXICO PTCLDY    63  57  82 NW16      30.14R

ADJACENT COASTAL WATERS...

STATION/POSITION TIME  SKY/WX   TEMP    WIND        PRES    WAVE
                                AIR SEA DIR/SP/G            HT/PER
                 (UTC)          (F)     (DEG/KT/KT) (MB)    (FT/S)
PULASKI SHOAL LI 1200                                 N/A
SAND KEY         1250            58     360/ 31/ 37 1017.7R
SOMBRERO KEY     NOT AVBL
LONG KEY         1200            59 68  360/ 17/ 20 1016.7R
MOLASSES REEF    1300            58 75  330/ 19/ 22 1016.1R
FOWEY ROCKS      NOT AVBL

$$



USA.gov is the U.S. government's official web portal to all federal, state and local government web resources and services.